Time,TemperatureF,DewpointF,PressureIn,WindDirection,WindDirectionDegrees,WindSpeedMPH,WindSpeedGustMPH,Humidity,HourlyPrecipIn,Conditions,Clouds,dailyrainin,SoftwareType,DateUTC
2013-10-27 00:11:00,47.0,44.0,28.04,SE,135,0.0,1.0,88,0.00,,,0.00,,2013-10-27 07:11:00,
2013-10-27 00:21:00,47.0,43.0,28.03,NW,311,0.0,2.0,86,0.00,,,0.00,,2013-10-27 07:21:00,
2013-10-27 00:42:00,46.0,43.0,28.02,SSE,159,0.0,1.0,88,0.00,,,0.00,,2013-10-27 07:42:00,
2013-10-27 00:52:00,47.0,44.0,28.01,SE,141,0.0,0.0,88,0.00,,,0.00,,2013-10-27 07:52:00,
2013-10-27 01:11:00,47.0,43.0,28.00,SE,141,0.0,1.0,87,0.00,,,0.00,,2013-10-27 08:11:00,
2013-10-27 01:22:00,48.0,44.0,27.99,ENE,73,0.0,3.0,85,0.00,,,0.00,,2013-10-27 08:22:00,
2013-10-27 01:42:00,49.0,43.0,27.99,ENE,60,0.0,5.0,81,0.00,,,0.00,,2013-10-27 08:42:00,
2013-10-27 01:52:00,48.0,43.0,27.98,SE,145,0.0,2.0,84,0.00,,,0.00,,2013-10-27 08:52:00,
2013-10-27 02:12:00,47.0,43.0,27.98,SSE,155,0.0,1.0,86,0.00,,,0.00,,2013-10-27 09:12:00,
2013-10-27 02:21:00,46.0,42.0,27.97,South,191,0.0,0.0,87,0.00,,,0.00,,2013-10-27 09:21:00,
2013-10-27 02:43:00,46.0,42.0,27.95,WNW,295,0.0,0.0,87,0.00,,,0.00,,2013-10-27 09:43:00,
2013-10-27 02:53:00,46.0,42.0,27.94,WNW,291,0.0,0.0,86,0.00,,,0.00,,2013-10-27 09:53:00,
2013-10-27 03:12:00,46.0,42.0,27.93,WNW,293,0.0,1.0,87,0.00,,,0.00,,2013-10-27 10:12:00,
2013-10-27 03:23:00,46.0,42.0,27.92,WNW,293,0.0,0.0,87,0.00,,,0.00,,2013-10-27 10:23:00,
2013-10-27 03:42:00,46.0,42.0,27.89,WNW,293,0.0,0.0,87,0.00,,,0.00,,2013-10-27 10:42:00,
2013-10-27 03:53:00,46.0,43.0,27.87,SSE,155,0.0,1.0,88,0.00,,,0.00,,2013-10-27 10:53:00,
2013-10-27 04:11:00,46.0,43.0,27.87,WNW,293,0.0,1.0,88,0.00,,,0.00,,2013-10-27 11:11:00,
2013-10-27 04:22:00,46.0,42.0,27.86,East,86,0.0,1.0,87,0.00,,,0.00,,2013-10-27 11:22:00,
2013-10-27 04:42:00,45.0,41.0,27.85,ESE,123,0.0,1.0,86,0.00,,,0.00,,2013-10-27 11:42:00,
2013-10-27 04:52:00,44.0,41.0,27.84,SW,217,0.0,1.0,88,0.00,,,0.00,,2013-10-27 11:52:00,
2013-10-27 05:12:00,44.0,41.0,27.83,SE,135,0.0,1.0,90,0.00,,,0.00,,2013-10-27 12:12:00,
2013-10-27 05:22:00,44.0,42.0,27.81,SE,135,0.0,0.0,91,0.00,,,0.00,,2013-10-27 12:22:00,
2013-10-27 05:41:00,43.0,41.0,27.81,SE,142,0.0,1.0,91,0.00,,,0.00,,2013-10-27 12:41:00,
2013-10-27 05:52:00,43.0,41.0,27.81,WSW,246,0.0,2.0,91,0.00,,,0.00,,2013-10-27 12:52:00,
2013-10-27 06:12:00,43.0,41.0,27.82,South,177,0.0,1.0,91,0.00,,,0.00,,2013-10-27 13:12:00,
2013-10-27 06:21:00,43.0,41.0,27.83,SSW,204,0.0,1.0,92,0.00,,,0.00,,2013-10-27 13:21:00,
2013-10-27 06:42:00,44.0,42.0,27.83,SW,229,0.0,1.0,93,0.00,,,0.00,,2013-10-27 13:42:00,
2013-10-27 06:52:00,44.0,42.0,27.83,SW,229,0.0,1.0,93,0.00,,,0.00,,2013-10-27 13:52:00,
2013-10-27 07:11:00,45.0,43.0,27.82,North,349,0.0,2.0,91,0.00,,,0.00,,2013-10-27 14:11:00,
2013-10-27 07:21:00,44.0,41.0,27.82,NNW,330,0.0,2.0,90,0.00,,,0.00,,2013-10-27 14:21:00,
2013-10-27 07:42:00,44.0,42.0,27.81,NNW,333,0.0,0.0,91,0.00,,,0.00,,2013-10-27 14:42:00,
2013-10-27 07:52:00,43.0,40.0,27.80,WNW,297,0.0,2.0,89,0.00,,,0.00,,2013-10-27 14:52:00,
2013-10-27 08:11:00,44.0,40.0,27.79,SW,216,0.0,1.0,87,0.00,,,0.00,,2013-10-27 15:11:00,
2013-10-27 08:21:00,44.0,42.0,27.78,WSW,239,0.0,2.0,91,0.00,,,0.00,,2013-10-27 15:21:00,
2013-10-27 08:44:00,44.0,42.0,27.78,WSW,239,0.0,1.0,91,0.00,,,0.00,,2013-10-27 15:44:00,
2013-10-27 08:54:00,45.0,43.0,27.79,SW,233,0.0,1.0,92,0.00,,,0.00,,2013-10-27 15:54:00,
2013-10-27 09:13:00,46.0,43.0,27.80,SW,232,1.0,3.0,88,0.00,,,0.00,,2013-10-27 16:13:00,
2013-10-27 09:24:00,48.0,44.0,27.80,SE,139,0.0,1.0,85,0.00,,,0.00,,2013-10-27 16:24:00,
2013-10-27 09:43:00,49.0,44.0,27.81,SE,145,0.0,1.0,83,0.00,,,0.00,,2013-10-27 16:43:00,
2013-10-27 09:53:00,49.0,44.0,27.81,SE,146,0.0,1.0,82,0.00,,,0.00,,2013-10-27 16:53:00,
2013-10-27 10:13:00,50.0,44.0,27.82,North,358,0.0,7.0,80,0.00,,,0.00,,2013-10-27 17:13:00,
2013-10-27 10:22:00,50.0,44.0,27.83,ESE,120,0.0,0.0,81,0.00,,,0.00,,2013-10-27 17:22:00,
2013-10-27 10:43:00,49.0,45.0,27.83,SE,127,0.0,3.0,85,0.00,,,0.00,,2013-10-27 17:43:00,
2013-10-27 10:53:00,50.0,46.0,27.82,NNW,338,0.0,3.0,85,0.00,,,0.00,,2013-10-27 17:53:00,
2013-10-27 11:12:00,50.0,45.0,27.82,SSW,211,0.0,1.0,82,0.00,,,0.00,,2013-10-27 18:12:00,
2013-10-27 11:22:00,51.0,46.0,27.82,SE,143,0.0,1.0,82,0.00,,,0.00,,2013-10-27 18:22:00,
2013-10-27 11:43:00,51.0,46.0,27.81,SE,142,0.0,0.0,84,0.00,,,0.00,,2013-10-27 18:43:00,
2013-10-27 11:52:00,50.0,46.0,27.82,North,351,1.0,4.0,85,0.00,,,0.00,,2013-10-27 18:52:00,
2013-10-27 12:11:00,50.0,46.0,27.82,NNW,333,0.0,2.0,87,0.00,,,0.00,,2013-10-27 19:11:00,
2013-10-27 12:22:00,50.0,46.0,27.81,West,262,2.0,5.0,87,0.00,,,0.00,,2013-10-27 19:22:00,
2013-10-27 12:42:00,51.0,46.0,27.81,WNW,297,3.0,8.0,83,0.00,,,0.00,,2013-10-27 19:42:00,
2013-10-27 12:52:00,51.0,46.0,27.81,NW,323,2.0,6.0,82,0.00,,,0.00,,2013-10-27 19:52:00,
2013-10-27 13:12:00,51.0,46.0,27.81,NW,324,1.0,4.0,84,0.00,,,0.00,,2013-10-27 20:12:00,
2013-10-27 13:22:00,51.0,47.0,27.81,WNW,300,0.0,1.0,86,0.00,,,0.00,,2013-10-27 20:22:00,
2013-10-27 13:42:00,51.0,47.0,27.81,ENE,72,0.0,0.0,87,0.01,,,0.01,,2013-10-27 20:42:00,
2013-10-27 13:52:00,50.0,46.0,27.81,SW,229,0.0,1.0,87,0.02,,,0.02,,2013-10-27 20:52:00,
2013-10-27 14:11:00,51.0,47.0,27.81,West,278,0.0,1.0,86,0.04,,,0.04,,2013-10-27 21:11:00,
2013-10-27 14:21:00,50.0,47.0,27.81,ESE,116,0.0,2.0,90,0.04,,,0.04,,2013-10-27 21:21:00,
2013-10-27 14:43:00,51.0,48.0,27.81,ESE,115,0.0,1.0,91,0.03,,,0.04,,2013-10-27 21:43:00,
2013-10-27 14:54:00,52.0,49.0,27.81,ESE,116,0.0,1.0,91,0.02,,,0.04,,2013-10-27 21:54:00,
2013-10-27 15:13:00,52.0,49.0,27.81,ESE,107,0.0,1.0,90,0.00,,,0.04,,2013-10-27 22:13:00,
2013-10-27 15:24:00,52.0,49.0,27.82,ENE,75,0.0,1.0,90,0.00,,,0.04,,2013-10-27 22:24:00,
2013-10-27 15:43:00,52.0,49.0,27.82,NW,323,0.0,1.0,91,0.00,,,0.04,,2013-10-27 22:43:00,
2013-10-27 15:54:00,52.0,49.0,27.82,SSE,148,0.0,1.0,90,0.00,,,0.04,,2013-10-27 22:54:00,
2013-10-27 16:11:00,52.0,49.0,27.83,SSW,210,0.0,1.0,89,0.00,,,0.04,,2013-10-27 23:11:00,
2013-10-27 16:22:00,52.0,46.0,27.83,ESE,122,0.0,1.0,81,0.00,,,0.04,,2013-10-27 23:22:00,
2013-10-27 16:42:00,53.0,47.0,27.83,SE,141,0.0,1.0,80,0.00,,,0.04,,2013-10-27 23:42:00,
2013-10-27 16:52:00,53.0,46.0,27.83,SE,141,0.0,0.0,78,0.00,,,0.04,,2013-10-27 23:52:00,
2013-10-27 17:11:00,54.0,48.0,27.84,NE,55,0.0,2.0,79,0.00,,,0.04,,2013-10-28 00:11:00,
2013-10-27 17:22:00,53.0,47.0,27.84,SSE,158,0.0,1.0,79,0.00,,,0.04,,2013-10-28 00:22:00,
2013-10-27 17:42:00,53.0,47.0,27.85,ESE,118,0.0,2.0,79,0.00,,,0.04,,2013-10-28 00:42:00,
2013-10-27 17:52:00,52.0,46.0,27.86,ESE,117,0.0,2.0,79,0.00,,,0.04,,2013-10-28 00:52:00,
2013-10-27 18:12:00,52.0,46.0,27.86,ESE,113,0.0,1.0,81,0.00,,,0.04,,2013-10-28 01:12:00,
2013-10-27 18:21:00,53.0,45.0,27.87,East,89,3.0,9.0,74,0.00,,,0.04,,2013-10-28 01:21:00,
2013-10-27 18:42:00,54.0,44.0,27.88,ENE,77,5.0,12.0,69,0.00,,,0.04,,2013-10-28 01:42:00,
2013-10-27 18:52:00,55.0,44.0,27.89,NNE,32,6.0,16.0,67,0.00,,,0.04,,2013-10-28 01:52:00,
2013-10-27 19:11:00,54.0,43.0,27.89,NNW,332,3.0,9.0,66,0.00,,,0.04,,2013-10-28 02:11:00,
2013-10-27 19:21:00,55.0,43.0,27.90,SE,128,4.0,14.0,65,0.00,,,0.04,,2013-10-28 02:21:00,
2013-10-27 19:42:00,55.0,43.0,27.91,ESE,120,2.0,3.0,65,0.00,,,0.04,,2013-10-28 02:42:00,
2013-10-27 19:53:00,54.0,43.0,27.91,NE,34,1.0,12.0,67,0.00,,,0.04,,2013-10-28 02:53:00,
2013-10-27 20:11:00,54.0,43.0,27.90,NW,304,1.0,4.0,67,0.00,,,0.04,,2013-10-28 03:11:00,
2013-10-27 20:22:00,54.0,44.0,27.90,ESE,111,1.0,3.0,68,0.00,,,0.04,,2013-10-28 03:22:00,
2013-10-27 20:44:00,53.0,43.0,27.90,ENE,61,1.0,5.0,68,0.00,,,0.04,,2013-10-28 03:44:00,
2013-10-27 20:54:00,54.0,43.0,27.90,ESE,111,0.0,3.0,66,0.00,,,0.04,,2013-10-28 03:54:00,
2013-10-27 21:13:00,54.0,44.0,27.91,ESE,107,0.0,5.0,68,0.00,,,0.04,,2013-10-28 04:13:00,
2013-10-27 21:23:00,54.0,44.0,27.91,ESE,107,0.0,5.0,68,0.00,,,0.04,,2013-10-28 04:23:00,
2013-10-27 21:43:00,53.0,43.0,27.92,NNE,23,0.0,3.0,68,0.00,,,0.04,,2013-10-28 04:43:00,
2013-10-27 21:53:00,54.0,43.0,27.92,SSE,162,0.0,5.0,66,0.00,,,0.04,,2013-10-28 04:53:00,
2013-10-27 22:13:00,53.0,42.0,27.92,SSW,210,0.0,1.0,66,0.00,,,0.04,,2013-10-28 05:13:00,
2013-10-27 22:22:00,55.0,42.0,27.91,NNW,328,2.0,9.0,61,0.00,,,0.04,,2013-10-28 05:22:00,
2013-10-27 22:42:00,55.0,41.0,27.92,NW,323,5.0,13.0,60,0.00,,,0.04,,2013-10-28 05:42:00,
2013-10-27 22:53:00,55.0,41.0,27.93,West,278,2.0,8.0,60,0.00,,,0.04,,2013-10-28 05:53:00,
2013-10-27 23:12:00,55.0,41.0,27.94,NNW,328,0.0,9.0,59,0.00,,,0.04,,2013-10-28 06:12:00,
2013-10-27 23:22:00,55.0,40.0,27.94,WNW,295,1.0,9.0,57,0.00,,,0.04,,2013-10-28 06:22:00,
2013-10-27 23:42:00,55.0,41.0,27.94,North,358,0.0,2.0,58,0.00,,,0.04,,2013-10-28 06:42:00,
2013-10-27 23:52:00,55.0,39.0,27.95,NNW,332,5.0,10.0,55,0.00,,,0.04,,2013-10-28 06:52:00,